Galveston, TX

5:55 PM CST on December 09, 2018 (GMT -0600)
Scholes International At Galveston

Weather History for KGLS - December, 2018

Change the Weather History Date:

Thursday, December 6, 2018

  Actual Average Record
Temperature  
Mean Temperature 64 °F 59 °F  
Max Temperature 70 °F 66 °F 79 °F (1998)
Min Temperature 58 °F 52 °F 23 °F (1950)
Degree Days  
Heating Degree Days 1 7  
Month to date heating degree days 29 40  
Since 1 July heating degree days 197 143  
Cooling Degree Days 0 1  
Month to date cooling degree days 8 6  
Year to date cooling degree days 3700 3295  
Growing Degree Days 14 (Base 50)    
Moisture  
Dew Point 59 °F    
Average Humidity 78    
Maximum Humidity 93    
Minimum Humidity 62    
Precipitation  
Precipitation T in 0.12 in 2.82 in (1915)
Month to date precipitation T 0.84  
Year to date precipitation 56.49 48.08  
Snow  
Snow 0.00 in - 0.00 in (2002)
Month to date snowfall 0.0  
Since 1 July snowfall 0.0  
Snow Depth 0.00 in    
Sea Level Pressure  
Sea Level Pressure 30.24 in    
Wind  
Wind Speed 11 mph (ESE)    
Max Wind Speed 18 mph    
Max Gust Speed 22 mph    
Visibility 10 miles    
Events Rain    
T = Trace of Precipitation, MM = Missing Value Source: NWS Daily Summary

Daily Weather History Graph

Daily Weather History Graph

Search for Another Location

Airport or City:

Astronomy

Dec. 06, 2018 Rise Set
Actual Time 6:59 AM CST 5:21 PM CST
Civil Twilight 6:34 AM CST 5:46 PM CST
Nautical Twilight 6:04 AM CST 6:16 PM CST
Astronomical Twilight 5:35 AM CST 6:45 PM CST
Moon 6:14 AM CST (12/6) 5:12 PM CST (12/6)
Length of Visible Light 11h 12m
Length of Day
10h 21m
Waning Crescent, 0% of the Moon is Illuminated
Dec 6
Waning Crescent
Dec 7
New
Dec 15
First Quarter
Dec 22
Full
Dec 29
Last Quarter

Hourly Weather History & Observations

Time (CST) Temp. Dew Point Humidity Pressure Visibility Wind Dir Wind Speed Gust Speed Precip Events Conditions
12:52 AM 59.0 °F 46.9 °F 64% 30.30 in 10.0 mi SE 11.5 mph - N/A   Clear
1:52 AM 60.1 °F 50.0 °F 69% 30.27 in 10.0 mi SE 11.5 mph - N/A   Partly Cloudy
2:52 AM 62.1 °F 52.0 °F 70% 30.26 in 10.0 mi SE 12.7 mph - N/A   Overcast
3:52 AM 63.0 °F 53.1 °F 70% 30.25 in 10.0 mi SE 13.8 mph - N/A   Overcast
4:52 AM 63.0 °F 54.0 °F 72% 30.23 in 10.0 mi SE 12.7 mph - N/A   Overcast
5:52 AM 63.0 °F 55.9 °F 78% 30.25 in 10.0 mi SE 11.5 mph - N/A   Overcast
6:52 AM 64.0 °F 57.0 °F 78% 30.25 in 10.0 mi SE 13.8 mph - N/A   Overcast
7:52 AM 64.9 °F 57.9 °F 78% 30.25 in 10.0 mi ESE 12.7 mph - N/A   Overcast
8:52 AM 64.9 °F 57.9 °F 78% 30.27 in 10.0 mi SE 11.5 mph - N/A   Overcast
9:52 AM 66.0 °F 59.0 °F 78% 30.28 in 10.0 mi SE 12.7 mph - N/A   Overcast
10:52 AM 66.9 °F 60.1 °F 79% 30.27 in 10.0 mi SE 12.7 mph - N/A   Overcast
11:52 AM 68.0 °F 60.1 °F 76% 30.25 in 10.0 mi SE 12.7 mph - N/A   Overcast
12:52 PM 68.0 °F 60.1 °F 76% 30.22 in 10.0 mi ESE 9.2 mph - N/A   Overcast
1:52 PM 68.0 °F 60.1 °F 76% 30.20 in 10.0 mi ESE 12.7 mph - N/A   Overcast
2:52 PM 66.9 °F 61.0 °F 81% 30.19 in 10.0 mi SE 10.4 mph - N/A   Overcast
3:52 PM 66.9 °F 62.1 °F 84% 30.21 in 8.0 mi ESE 5.8 mph - N/A   Overcast
4:52 PM 66.9 °F 62.1 °F 84% 30.22 in 8.0 mi East 6.9 mph - N/A   Overcast
5:52 PM 66.0 °F 62.1 °F 87% 30.21 in 10.0 mi ESE 11.5 mph - N/A   Overcast
6:52 PM 66.9 °F 63.0 °F 87% 30.22 in 10.0 mi ESE 12.7 mph - N/A   Mostly Cloudy
7:24 PM 66.0 °F 63.0 °F 90% 30.22 in 10.0 mi ESE 11.5 mph - N/A   Mostly Cloudy
7:52 PM 66.0 °F 63.0 °F 90% 30.22 in 10.0 mi ESE 11.5 mph - N/A   Mostly Cloudy
8:52 PM 66.0 °F 64.0 °F 93% 30.23 in 10.0 mi East 9.2 mph - 0.00 in Rain Light Rain
9:05 PM 66.0 °F 64.0 °F 93% 30.24 in 10.0 mi East 8.1 mph - 0.00 in   Overcast
9:36 PM 66.0 °F 64.0 °F 93% 30.24 in 10.0 mi East 10.4 mph - 0.00 in   Overcast
9:52 PM 66.0 °F 64.0 °F 93% 30.24 in 10.0 mi ESE 9.2 mph - 0.00 in   Overcast
10:52 PM 66.9 °F 64.0 °F 90% 30.23 in 10.0 mi ESE 11.5 mph - N/A   Partly Cloudy
11:52 PM 66.9 °F 64.0 °F 90% 30.22 in 10.0 mi SE 11.5 mph - N/A   Mostly Cloudy